FW1662 Weather Reports


time (UTC)temp
C
wind
direction
speed
KPH
gust
KPH
rain 1hr
cm
rain 24hr
cm
rain mn
cm
humidity
%
barometer
mb
20190519113029 15 150 6.4 14.5 0.00 0.00 0.00 75 1019.2
20190519111606 15 160 4.8 14.5 0.00 0.00 0.00 78 1019.6
20190519110025 15 153 3.2 11.3 0.00 0.00 0.00 79 1019.9
20190519104532 14 122 1.6 9.7 0.00 0.00 0.00 80 1019.8
20190519103016 13 226 4.8 11.3 0.00 0.00 0.00 82 1019.4
20190519101518 13 161 4.8 11.3 0.00 0.00 0.00 83 1019.7
20190519100017 13 217 0.0 11.3 0.00 0.00 0.00 83 1019.7
20190519094515 13 129 0.0 9.7 0.00 0.00 0.00 82 1019.3
20190519093008 13 207 1.6 8.0 0.00 0.00 0.00 82 1019.1
20190519091522 13 148 3.2 11.3 0.00 0.00 0.00 82 1018.8
20190519090020 13 155 3.2 12.9 0.00 0.00 0.00 82 1018.9
20190519084510 13 143 3.2 9.7 0.00 0.00 0.00 82 1019.0
20190519083001 13 162 3.2 9.7 0.00 0.00 0.00 82 1019.0
20190519081638 13 176 0.0 3.2 0.00 0.00 0.00 81 1019.1
20190519080136 13 148 0.0 8.0 0.00 0.00 0.00 80 1019.0
20190519074755 13 150 1.6 11.3 0.00 0.00 0.00 80 1019.1
20190519073234 14 218 3.2 11.3 0.00 0.00 0.00 79 1019.0
20190519071744 14 150 3.2 11.3 0.00 0.00 0.00 79 1019.1
20190519070240 13 164 3.2 9.7 0.00 0.00 0.00 79 1019.0
20190519064651 13 196 3.2 14.5 0.00 0.00 0.00 79 1019.1
20190519063109 13 166 3.2 9.7 0.00 0.00 0.00 78 1019.1
20190519061640 13 158 1.6 9.7 0.00 0.00 0.00 78 1019.0
20190519060120 13 173 3.2 11.3 0.00 0.00 0.00 77 1019.0
20190519054710 13 111 3.2 9.7 0.00 0.00 0.00 75 1019.1
20190519053135 13 160 1.6 14.5 0.00 0.00 0.00 73 1019.2
20190519051626 13 141 4.8 12.9 0.00 0.00 0.00 71 1019.1
20190519050118 14 228 3.2 12.9 0.00 0.00 0.00 68 1019.0
20190519044644 14 210 4.8 12.9 0.00 0.00 0.00 67 1019.0
20190519043104 14 214 4.8 17.7 0.00 0.00 0.00 66 1019.0
20190519041628 14 217 4.8 11.3 0.00 0.00 0.00 66 1018.9
20190519040120 14 161 4.8 19.3 0.00 0.00 0.00 66 1019.0
20190519034634 13 212 3.2 11.3 0.00 0.00 0.00 67 1019.1
20190519033054 14 213 4.8 12.9 0.00 0.00 0.00 67 1019.1
20190519031618 14 128 1.6 9.7 0.00 0.00 0.00 66 1019.2
20190519030101 14 155 4.8 11.3 0.00 0.00 0.00 65 1018.9
20190519024605 14 140 3.2 16.1 0.00 0.00 0.00 65 1018.8
20190519023054 14 150 3.2 14.5 0.00 0.00 0.00 66 1018.5
20190519021625 14 139 1.6 12.9 0.00 0.00 0.00 65 1018.6
20190519020043 14 158 3.2 17.7 0.00 0.00 0.00 64 1018.4
20190519014544 14 143 4.8 12.9 0.00 0.00 0.00 64 1018.2
20190519013041 14 216 6.4 16.1 0.00 0.00 0.00 64 1018.0
20190519011604 15 200 4.8 20.9 0.00 0.00 0.00 63 1017.9
20190519010043 15 200 4.8 14.5 0.00 0.00 0.00 63 1017.7
20190519004531 15 241 1.6 12.9 0.00 0.00 0.00 62 1017.6
20190519003050 15 191 4.8 14.5 0.00 0.00 0.00 61 1017.4
20190519001527 16 140 8.0 17.7 0.00 0.00 0.00 59 1017.4
20190519000026 16 240 4.8 16.1 0.00 0.00 0.00 58 1017.3
20190518234544 17 222 8.0 22.5 0.00 0.00 0.00 56 1017.1
20190518233105 17 167 4.8 12.9 0.00 0.00 0.00 56 1016.8
20190518231515 17 231 8.0 22.5 0.00 0.00 0.00 54 1016.4
20190518230055 18 226 8.0 19.3 0.00 0.00 0.00 54 1016.3
20190518224555 18 219 4.8 17.7 0.00 0.00 0.00 51 1016.0
20190518223014 20 168 6.4 22.5 0.00 0.00 0.00 47 1015.8
20190518221528 21 309 4.8 12.9 0.00 0.00 0.00 48 1015.7
20190518220049 21 208 4.8 12.9 0.00 0.00 0.00 46 1015.7
20190518214520 22 155 3.2 14.5 0.00 0.00 0.00 45 1015.6
20190518213026 22 212 4.8 16.1 0.00 0.00 0.00 44 1015.5
20190518211512 23 217 3.2 9.7 0.00 0.00 0.00 44 1015.5
20190518210012 23 158 0.0 8.0 0.00 0.00 0.00 40 1015.3
20190518204507 23 48 1.6 8.0 0.00 0.00 0.00 38 1015.3
20190518203028 23 349 3.2 9.7 0.00 0.00 0.00 37 1015.1
20190518201509 23 331 0.0 8.0 0.00 0.00 0.00 38 1015.0
20190518200013 23 293 0.0 4.8 0.00 0.00 0.00 36 1015.2
20190518194509 23 353 1.6 6.4 0.00 0.00 0.00 37 1015.3
20190518193008 23 352 3.2 12.9 0.00 0.00 0.00 40 1015.5
20190518191642 22 266 1.6 6.4 0.00 0.00 0.00 41 1015.6
20190518190212 22 330 3.2 8.0 0.00 0.00 0.00 43 1015.8
20190518183237 22 342 6.4 14.5 0.00 0.00 0.00 41 1016.0
20190518181622 22 252 0.0 6.4 0.00 0.00 0.00 41 1016.0
20190518180304 22 343 0.0 6.4 0.00 0.00 0.00 40 1016.3
20190518173142 21 286 1.6 12.9 0.00 0.00 0.00 45 1016.6
20190518171655 20 326 3.2 9.7 0.00 0.00 0.00 42 1016.6
20190518170130 20 359 3.2 8.0 0.00 0.00 0.00 45 1016.4
20190518164627 20 267 1.6 9.7 0.00 0.00 0.00 49 1016.4
20190518163100 20 321 4.8 12.9 0.00 0.00 0.00 48 1016.4
20190518161606 19 333 1.6 8.0 0.00 0.00 0.00 52 1016.3
20190518160135 19 8 3.2 9.7 0.00 0.00 0.00 51 1016.5
20190518154607 18 330 1.6 11.3 0.00 0.00 0.00 50 1016.5
20190518153154 18 4 3.2 11.3 0.00 0.00 0.00 52 1016.7
20190518151715 18 7 3.2 6.4 0.00 0.00 0.00 52 1016.8
20190518150106 17 6 1.6 9.7 0.00 0.00 0.00 55 1016.8
20190518144645 17 319 1.6 6.4 0.00 0.00 0.00 55 1017.0
20190518143106 17 274 1.6 6.4 0.00 0.00 0.00 54 1016.9
20190518141644 17 27 1.6 6.4 0.00 0.00 0.00 57 1016.8
20190518140121 16 7 3.2 8.0 0.00 0.00 0.00 57 1016.7
20190518134556 16 2 1.6 11.3 0.00 0.00 0.00 58 1016.5
20190518133103 16 290 1.6 9.7 0.00 0.00 0.00 60 1016.6
20190518131612 16 328 1.6 9.7 0.00 0.00 0.00 62 1016.2
20190518130041 15 330 1.6 9.7 0.00 0.00 0.00 62 1016.2
20190518124550 15 357 3.2 6.4 0.00 0.00 0.00 64 1016.0
20190518123029 15 358 1.6 8.0 0.00 0.00 0.00 64 1015.9
20190518121608 15 334 0.0 6.4 0.00 0.00 0.00 63 1015.7
20190518120113 15 315 1.6 6.4 0.00 0.00 0.00 63 1015.7
20190518114533 15 350 3.2 6.4 0.00 0.00 0.00 65 1015.2